GREENCUBE

Last updated on Tue Nov 19 2024 00:03:02 GMT+0000 (Coordinated Universal Time)

1 53106U 22080B 24323.52137211 -.00000003 00000+0 00000+0 0 9995 2 53106 70.1294 138.9057 0008387 72.7310 287.4267 6.42557804 55185
UTC large
Height (km)
Speed (km/s)
/
Latitude / Longitude
Inclination (degrees)
Orbital Period (minutes)
Azimuth
Elevation
Range (km)
Doppler Factor

Next 0 passes for location: London (51.5072 / 0.1276)

Sorry there are no passes over London.